DK4DAX-2 Weather Reports


time (UTC)temp
F
wind
direction
speed
knots
gust
knots
rain 1hr
in
rain 24hr
in
rain mn
in
humidity
%
barometer
mb
20260507101502 70 294 1.7 3.5 0.00 0.00 0.00 36 1007.9
20260507100003 69 283 0.9 3.5 0.00 0.00 0.00 41 1007.7
20260507094502 65 132 0.9 2.6 0.00 0.00 0.00 48 1007.5
20260507093001 64 260 0.0 4.3 0.00 0.00 0.00 48 1007.5
20260507091502 63 224 1.7 3.5 0.00 0.00 0.00 51 1007.3
20260507090003 61 213 0.9 2.6 0.00 0.00 0.00 60 1007.4
20260507084502 60 217 1.7 3.5 0.00 0.00 0.00 61 1007.2
20260507083002 60 98 0.0 2.6 0.00 0.00 0.00 64 1007.3
20260507081501 58 225 0.9 1.7 0.00 0.00 0.00 71 1007.4
20260507080003 56 173 0.0 3.5 0.00 0.00 0.00 73 1007.3
20260507074502 56 150 0.0 1.7 0.00 0.00 0.00 76 1007.3
20260507073002 55 239 0.0 2.6 0.00 0.00 0.00 78 1007.1
20260507071502 55 295 0.0 3.5 0.00 0.00 0.00 79 1007.0
20260507070004 54 26 0.0 3.5 0.00 0.00 0.00 81 1006.7
20260507064502 53 157 0.0 0.9 0.00 0.00 0.00 84 1006.7
20260507063002 52 266 0.0 3.5 0.00 0.00 0.00 85 1006.6
20260507061502 52 152 0.0 1.7 0.00 0.00 0.00 85 1006.4
20260507060002 52 141 0.0 1.7 0.00 0.00 0.00 87 1006.1
20260507054502 51 267 0.0 3.5 0.00 0.00 0.00 89 1006.2
20260507053003 51 135 0.0 0.9 0.00 0.00 0.00 90 1006.1
20260507051502 50 185 0.0 1.7 0.00 0.00 0.00 90 1006.0
20260507050002 50 286 0.9 1.7 0.00 0.00 0.00 89 1005.7
20260507044502 50 0 0.0 0.0 0.00 0.00 0.00 89 1005.4
20260507043002 50 90 0.0 0.9 0.00 0.00 0.00 89 1005.4
20260507041502 50 0 0.0 0.0 0.00 0.00 0.00 88 1005.4
20260507040003 50 0 0.0 0.0 0.00 0.00 0.00 88 1005.1
20260507034502 50 0 0.0 0.0 0.00 0.00 0.00 87 1005.2
20260507033002 50 0 0.0 0.0 0.00 0.00 0.00 87 1005.3
20260507031502 50 0 0.0 0.0 0.00 0.00 0.00 86 1005.1
20260507030002 50 0 0.0 0.0 0.00 0.00 0.00 87 1005.0
20260507024502 50 0 0.0 0.0 0.00 0.00 0.00 87 1005.0
20260507023002 50 0 0.0 0.0 0.00 0.00 0.00 87 1004.8
20260507021502 50 0 0.0 0.0 0.00 0.00 0.00 87 1004.9
20260507020003 50 90 0.0 2.6 0.00 0.01 0.00 88 1004.5
20260507014502 50 135 0.0 0.9 0.00 0.01 0.00 89 1004.3
20260507013002 50 0 0.0 0.0 0.00 0.01 0.00 90 1004.4
20260507011502 50 0 0.0 0.0 0.00 0.01 0.00 91 1004.3
20260507010003 50 0 0.0 0.0 0.00 0.01 0.00 92 1004.2
20260507004502 50 0 0.0 0.0 0.00 0.01 0.00 92 1004.3
20260507003002 50 0 0.0 0.0 0.00 0.01 0.00 92 1004.3
20260507001502 50 0 0.0 0.0 0.00 0.01 0.00 92 1003.9
20260507000003 50 0 0.0 0.0 0.00 0.01 0.00 93 1003.9
20260506234502 50 0 0.0 0.0 0.00 0.01 0.00 93 1004.0
20260506233002 50 0 0.0 0.0 0.00 0.01 0.00 93 1004.0
20260506231502 50 0 0.0 0.0 0.00 0.01 0.00 94 1003.8
20260506230002 50 157 0.0 0.9 0.00 0.01 0.00 94 1003.9
20260506224502 50 200 0.0 1.7 0.00 0.01 0.00 95 1003.7
20260506223002 50 135 0.0 1.7 0.00 0.01 0.00 95 1003.6
20260506221502 50 205 0.0 1.7 0.00 0.01 0.00 95 1003.5
20260506220004 50 137 0.0 1.7 0.00 0.01 0.00 96 1003.4
20260506214502 50 135 0.0 0.9 0.00 0.01 0.01 96 1003.3
20260506213002 50 0 0.0 0.0 0.00 0.01 0.01 97 1003.1
20260506211502 51 214 0.0 1.7 0.00 0.01 0.01 97 1003.0
20260506210003 51 130 0.0 1.7 0.00 0.01 0.01 97 1002.9
20260506204502 51 111 0.0 2.6 0.00 0.01 0.01 97 1002.7
20260506203002 51 112 0.0 0.9 0.00 0.01 0.01 97 1002.8
20260506201503 51 135 0.0 1.7 0.00 0.01 0.01 96 1002.7
20260506200003 51 90 0.0 1.7 0.00 0.01 0.01 96 1002.9
20260506194502 51 0 0.0 0.0 0.00 0.01 0.01 95 1002.3
20260506193003 51 217 0.0 0.9 0.00 0.01 0.01 94 1002.3
20260506191502 51 137 0.0 0.9 0.00 0.01 0.01 93 1002.1
20260506190002 51 204 0.0 0.9 0.00 0.01 0.01 93 1002.2
20260506184503 51 0 0.0 0.0 0.00 0.01 0.01 93 1002.0
20260506183002 52 0 0.0 0.0 0.00 0.01 0.01 93 1001.8
20260506181502 52 0 0.0 0.0 0.00 0.01 0.01 91 1001.5
20260506180003 52 0 0.0 0.0 0.00 0.01 0.01 91 1001.5
20260506174502 52 135 0.0 0.9 0.00 0.01 0.01 91 1001.3
20260506173002 52 90 0.0 0.9 0.00 0.01 0.01 92 1001.2
20260506171502 53 0 0.0 0.0 0.00 0.01 0.01 92 1001.3
20260506170003 52 165 0.0 0.9 0.00 0.01 0.01 92 1001.2
20260506164502 52 1 0.0 0.9 0.00 0.01 0.01 92 1000.9
20260506163002 52 245 0.0 3.5 0.00 0.01 0.01 91 1000.9
20260506161503 53 270 0.0 0.9 0.00 0.01 0.01 91 1000.8
20260506160002 53 134 0.0 1.7 0.00 0.01 0.01 91 1000.7
20260506154503 53 170 0.0 0.9 0.00 0.01 0.01 91 1000.6
20260506153002 53 200 0.0 1.7 0.00 0.01 0.01 90 1000.7
20260506151502 54 141 0.9 1.7 0.00 0.01 0.01 89 1000.7
20260506150003 54 173 0.0 2.6 0.00 0.01 0.01 88 1000.4
20260506144502 53 123 0.9 1.7 0.00 0.01 0.01 89 1000.5
20260506143002 54 333 0.0 3.5 0.00 0.01 0.01 88 1000.5
20260506141503 54 121 0.0 1.7 0.00 0.01 0.01 88 1000.3
20260506140002 54 27 0.0 1.7 0.00 0.01 0.01 88 1000.2
20260506134502 55 126 0.0 3.5 0.00 0.01 0.01 88 1000.2
20260506133003 55 124 0.0 1.7 0.00 0.01 0.01 89 1000.2
20260506131503 54 112 0.0 1.7 0.00 0.01 0.01 87 1000.3
20260506130003 55 270 0.0 1.7 0.00 0.01 0.01 87 1000.1
20260506124503 55 155 0.0 1.7 0.00 0.01 0.01 88 999.6
20260506123003 55 145 1.7 1.7 0.00 0.01 0.01 88 999.7
20260506121502 56 0 0.0 0.0 0.00 0.01 0.01 88 999.8
20260506120003 55 83 0.0 1.7 0.00 0.01 0.01 88 999.8
20260506114502 55 140 0.0 2.6 0.00 0.01 0.01 86 999.4
20260506113002 56 183 0.9 2.6 0.00 0.01 0.01 86 999.3
20260506111502 57 123 0.0 1.7 0.00 0.01 0.01 89 999.2
20260506110003 56 237 0.0 2.6 0.00 0.01 0.01 91 999.0
20260506104502 56 172 0.0 1.7 0.00 0.01 0.01 92 999.1
20260506103003 55 200 0.0 1.7 0.00 0.01 0.01 91 999.1